Flag for Germany Weather past 2 weeks in Schwerin, Mecklenburg-Western Pomerania, Germany

Now
44 °F

Light rain. Low clouds.


Feels Like: 43 °F
Forecast: 36 / 53 °F
Wind: 3 mph from Northeast

Location: Schwerin

Current Time: Apr 27, 2015 at 6:36:54 AM

Latest Report: Apr 27, 2015 at 4:00 AM


Visibility: 3 mi

Pressure: 29.69 "Hg

Humidity: 97%

Dew point: 44 °F

Location of SchwerinLocation

Historic Weather in Schwerin — Graph

°F

Schwerin temperature yesterday

Maximum temperature yesterday: 58 °F (at 4:00 PM)
Minimum temperature yesterday: 46 °F (at 10:00 PM)
Average temperature yesterday: 52 °F

Past Weeks' High & Low Weather Summary

 TemperatureHumidityPressure
High69 °F (Apr 15, 4:00 PM)100% (Apr 24, 4:00 AM)30.38 "Hg (Apr 24, 4:00 AM)
Low33 °F (Apr 14, 7:00 AM)29% (Apr 15, 4:00 PM)29.68 "Hg (Apr 26, 4:00 PM)
Average49 °F70%30.09 "Hg
* Reported Apr 12 4:00 AM — Apr 27 4:00 AM, Schwerin, Weather by CustomWeather, © 2015

Note: Actual official high and low records may vary slightly from our data, if they occured in-between our weather recording intervals... More about our weather records

Advertising

Schwerin weather history for previous 24 hours

 ConditionsComfort  
Time TempWeatherWind HumidityBarometerVisibility
4:00 AM
Mon, Apr 27
44 °FLight rain. Low clouds.3 mph97%29.69 "Hg2 mi
3:00 AM44 °FDrizzle. Low clouds.3 mph96%29.69 "Hg2 mi
2:00 AM45 °FLow clouds.2 mph98%29.70 "Hg2 mi
1:00 AM46 °FLow clouds.3 mph100%29.72 "Hg2 mi
12:00 AM46 °FLight rain. Low clouds.2 mph100%29.72 "Hg1 mi
10:00 PM
Sun, Apr 26
46 °FFog.2 mph97%29.72 "Hg3 mi
9:00 PM46 °FLow clouds.3 mph96%29.71 "Hg6 mi
8:00 PM47 °FLow clouds.3 mph97%29.71 "Hg5 mi
7:00 PM49 °FLow clouds.5 mph95%29.70 "Hg8 mi
6:00 PM52 °FLight rain. Low clouds.6 mph93%29.69 "Hg2 mi
4:00 PM58 °FOvercast.3 mph78%29.68 "Hg9 mi
3:00 PM57 °FOvercast.5 mph75%29.70 "Hg11 mi
2:00 PM56 °FOvercast.5 mph74%29.71 "Hg14 mi
1:00 PM56 °FOvercast.2 mph78%29.71 "Hg9 mi
12:00 PM53 °FLow clouds.5 mph90%29.73 "Hg4 mi
10:00 AM52 °FLow clouds.5 mph95%29.74 "Hg2 mi
9:00 AM51 °FFog.5 mph95%29.74 "Hg2 mi
8:00 AM51 °FFog.3 mph94%29.74 "Hg2 mi
7:00 AM49 °FFog.2 mph97%29.73 "Hg2 mi
6:00 AM49 °FFog.2 mph99%29.73 "Hg1 mi
Weather by CustomWeather, © 2015

See weather overviewHow to use our weather pages